x

Silver Bay, Mn (slvm5) Weather Station

3:40am - Sun 26th Mar 2017 All times are CDT. -5 hours from GMT.

  • Wind
    11mph, 17mph gusts
  • Air Temp 33°f
  • Sea Pressure 1017.9mb
  • Silver Bay, Mn
  • Silver Bay, Mn

More Historic Weather Station data

Upgrade to MSW Pro to gain access to the past 30 days of data for over 8000 Wavebouys and Weather Stations around the globe.

Join Pro

Comparision Forecast

View Surf forecast
   
Sun 03/26 3:40am 11 17 mph 1017.9mb 33f
3:30am 13 17 mph 1017.9mb 33f
3:20am 13 20 mph 1017.9mb 33f
3:10am 10 16 mph 1018.3mb 33f
3:00am 10 18 mph 1018.3mb 33f
2:40am 10 18 mph 1018.6mb 33f
2:30am 10 18 mph 1019mb 33f
2:20am 9 18 mph 1019mb 33f
2:10am 11 17 mph 1019.3mb 33f
2:00am 9 18 mph 1019.3mb 33f
1:40am 11 17 mph 1019.3mb 33f
1:30am 11 18 mph 1019.3mb 33f
1:20am 11 18 mph 1019.6mb 33f
1:10am 14 18 mph 1019.6mb 33f
1:00am 15 23 mph 1020mb 34f
12:40am 14 20 mph 1020mb 33f
12:30am 14 21 mph 1020.3mb 33f
12:20am 14 21 mph 1020.7mb 34f
12:10am 17 22 mph 1020.7mb 34f
12:00am 16 20 mph 1020.7mb 34f
Sat 03/25 11:40pm 15 21 mph 1021mb 33f
11:30pm 16 21 mph 1021mb 33f
11:20pm 16 23 mph 1021.3mb 33f
11:10pm 15 22 mph 1021.3mb 33f
11:00pm 14 20 mph 1021.3mb 33f
10:40pm 16 24 mph 1021.7mb 33f
10:30pm 20 24 mph 1022mb 33f
10:20pm 20 23 mph 1022mb 33f
10:10pm 18 25 mph 1022.4mb 33f
10:00pm 18 28 mph 1022.4mb 33f
9:40pm 22 25 mph 1022.4mb 33f
9:30pm 20 24 mph 1022.4mb 33f
9:20pm 18 23 mph 1022.7mb 33f
9:10pm 18 25 mph 1022.7mb 33f
9:00pm 20 25 mph 1022.7mb 33f
8:40pm 20 26 mph 1022.7mb 33f
8:30pm 23 28 mph 1022.7mb 33f
8:20pm 23 26 mph 1023mb 33f
8:10pm 22 26 mph 1023.4mb 33f
8:00pm 20 25 mph 1023.4mb 33f
7:40pm 20 25 mph 1023.4mb 32f
7:30pm 22 25 mph 1023.4mb 33f
7:20pm 20 25 mph 1023.4mb 33f
7:10pm 23 26 mph 1023.4mb 32f
7:00pm 23 26 mph 1023.4mb 32f
6:40pm 22 25 mph 1023.7mb 32f
6:30pm 23 26 mph 1023.7mb 32f
6:20pm 23 29 mph 1023.7mb 32f
6:10pm 21 25 mph 1023.4mb 32f
6:00pm 22 28 mph 1023.4mb 32f
5:40pm 24 28 mph 1023.4mb 32f
5:30pm 24 28 mph 1023.4mb 32f
5:20pm 25 28 mph 1023.4mb 32f
5:10pm 24 28 mph 1023.7mb 32f
5:00pm 21 29 mph 1023.4mb 32f
4:40pm 23 29 mph 1023.7mb 32f
4:30pm 21 26 mph 1024mb 32f
4:20pm 21 26 mph 1024mb 32f
4:10pm 23 28 mph 1024.4mb 32f
4:00pm 23
mph
1024.7mb 32f
3:40pm 23 30 mph 1024.7mb 32f
3:30pm 24 28 mph 1024.7mb 32f
3:20pm 25 28 mph 1024.7mb 32f
3:10pm 25 28 mph 1024.7mb 32f
3:00pm 23 25 mph 1025.1mb 32f
2:40pm 25 28 mph 1025.4mb 33f
2:30pm 22 28 mph 1025.4mb 33f
2:20pm 23 28 mph 1025.4mb 33f
2:10pm 23 28 mph 1025.4mb 33f
2:00pm 24 29 mph 1025.7mb 33f
1:40pm 21 26 mph 1026.1mb 33f
1:30pm 16 26 mph 1026.1mb 33f
1:20pm 15 29 mph 1026.4mb 33f
1:10pm 18 28 mph 1026.8mb 33f
1:01pm 20
mph
1026.8mb 33f
1:00pm 20 28 mph 1026.8mb 33f
12:40pm 22 26 mph 1026.4mb 33f
12:30pm 24 30 mph 1026.8mb 33f
12:24pm 21 30 mph 1026.4mb 33f
12:20pm 23 28 mph 1026.8mb 33f
12:10pm 22 29 mph 1026.8mb 33f
12:00pm 23 29 mph 1026.8mb 33f
11:40am 22 28 mph 1026.8mb 33f
11:30am 25 28 mph 1027.1mb 33f
11:20am 21 28 mph 1027.1mb 33f
11:10am 21 29 mph 1027.1mb 33f
11:00am 21 28 mph 1027.4mb 33f
10:40am 23 26 mph 1027.1mb 33f
10:30am 21 26 mph 1027.1mb 33f
10:20am 20 28 mph 1027.4mb 33f
10:10am 22 28 mph 1027.1mb 33f
10:00am 24 29 mph 1027.1mb 33f
9:40am 24 28 mph 1026.8mb 33f
9:30am 18 26 mph 1026.8mb 33f
9:20am 24 29 mph 1027.1mb 33f
9:10am 21 26 mph 1027.1mb 33f
9:00am 24 29 mph 1027.1mb 33f
8:40am 22 28 mph 1027.1mb 33f
8:30am 24 28 mph 1027.1mb 33f
8:22am 25
mph
1027.1mb 33f
8:20am 23 28 mph 1027.1mb 33f
8:10am 25 29 mph 1026.8mb 33f
8:00am 23 29 mph 1026.8mb 33f
7:49am 24 29 mph 1026.4mb 33f
7:40am 24 28 mph 1026.4mb 33f
7:30am 24 28 mph 1026.4mb 34f
7:20am 25 29 mph 1026.4mb 34f
7:10am 24 28 mph 1026.1mb 34f
7:00am 24 26 mph 1026.4mb 34f
6:40am 20 24 mph 1026.1mb 34f
6:30am 22 24 mph 1026.1mb 34f
6:22am 18
mph
1025.4mb 34f
6:20am 18 22 mph 1026.1mb 34f
6:10am 15 21 mph 1026.1mb 34f
6:00am 11 22 mph 1025.7mb 34f
5:40am 14 18 mph 1025.7mb 34f
5:30am 16 21 mph 1025.7mb 34f
5:21am 15 18 mph 1026.1mb 34f
5:20am 15 17 mph 1026.1mb 34f
5:10am 9 15 mph 1026.1mb 34f
5:00am 11 17 mph 1025.7mb 34f
4:40am 11 17 mph 1025.7mb 34f
4:30am 11 18 mph 1025.7mb 34f
4:21am 11 17 mph 1025.7mb 34f
4:20am 11 17 mph 1025.7mb 34f
4:10am 11 16 mph 1025.7mb 34f
4:00am 9 15 mph 1025.7mb 34f
3:50am 11 17 mph 1025.7mb 34f
3:40am 11 16 mph 1025.7mb 34f
3:30am 9 15 mph 1025.7mb 34f
3:20am 10 15 mph 1025.7mb 34f
3:10am 10 14 mph 1025.7mb 34f
3:00am 10 15 mph 1025.7mb 34f
2:50am 8 14 mph 1025.7mb 34f
2:40am 8 13 mph 1026.1mb 34f
2:30am 8 11 mph 1026.1mb 34f
2:20am 9 14 mph 1026.4mb 35f
2:10am 8 11 mph 1026.1mb 35f
2:00am 7 14 mph 1026.1mb 35f
1:50am 9 13 mph 1025.7mb 35f
1:40am 6 11 mph 1025.7mb 35f
1:30am 8 11 mph 1025.4mb 35f
1:20am 7 16 mph 1025.4mb 35f
1:10am 7 13 mph 1025.1mb 35f
1:00am 7 13 mph 1025.4mb 35f
12:50am 8 16 mph 1025.1mb 35f
12:40am 9 15 mph 1024.7mb 35f
12:30am 9 15 mph 1024.7mb 35f
12:20am 8 14 mph 1024.7mb 35f
12:10am 10 15 mph 1024.7mb 35f
12:06am 8 13 mph 1025.1mb 35f
12:00am 7 13 mph 1025.1mb 35f
Fri 03/24 11:50pm 7 11 mph 1025.1mb 35f
11:40pm 6 13 mph 1025.1mb 35f
11:30pm 9 13 mph 1025.1mb 35f
11:20pm 7 13 mph 1025.1mb 35f
11:10pm 7 10 mph 1025.1mb 35f
11:06pm 7 14 mph 1025.1mb 35f
11:00pm 8 14 mph 1025.1mb 35f
10:50pm 7 10 mph 1025.1mb 35f
10:40pm 7 10 mph 1025.4mb 35f
10:30pm 6 9 mph 1025.1mb 35f
10:20pm 6 9 mph 1028.8mb 35f
10:10pm 7 10 mph 1025.1mb 35f
10:05pm 7 11 mph 1025.1mb 35f
10:00pm 7 10 mph 1025.1mb 35f
9:50pm 7 10 mph 1024.7mb 35f
9:40pm 7 9 mph 1025.1mb 35f
9:30pm 7 11 mph 1025.1mb 35f
9:20pm 7 10 mph 1025.1mb 35f
9:10pm 7 9 mph 1025.1mb 35f
9:05pm 6 9 mph 1025.1mb 35f
9:00pm 6 8 mph 1025.1mb 35f
8:50pm 6 8 mph 1025.1mb 35f
8:40pm 5 7 mph 1024.7mb 35f
8:30pm 6 9 mph 1024.7mb 35f
8:20pm 7 9 mph 1024.4mb 35f
8:10pm 6 8 mph 1024mb 35f
8:04pm 6 9 mph 1024mb 35f
8:00pm 6 7 mph 1024mb 35f
7:50pm 5 9 mph 1024mb 36f
7:40pm 7 9 mph 1023.7mb 36f
7:30pm 6 9 mph 1023.7mb 36f
7:20pm 5 6 mph 1023.4mb 36f
7:10pm 3 8 mph 1023.4mb 37f
7:04pm 6 8 mph 1023.4mb 37f
7:00pm 5
mph
1023.4mb 37f
6:50pm 3 6 mph 1023.4mb 37f
6:40pm 2 3 mph 1023mb 37f
6:30pm 3
mph
1023mb 37f
6:20pm 3 5 mph 1022.7mb 37f
6:10pm 3 5 mph 1022.4mb 37f
6:00pm 2 3 mph 1022.4mb 37f
5:50pm 1 2 mph 1022mb 37f
5:40pm 2 3 mph 1021.7mb 37f
5:30pm 2 3 mph 1021.3mb 37f
5:20pm 2
mph
1021.3mb 37f
5:10pm  -  2 mph 1021.3mb 37f
5:03pm 2 3 mph 1021.3mb 37f
5:00pm 1 2 mph 1021.3mb 37f
4:50pm  -  1 mph 1021mb 37f
4:40pm  -  2 mph 1021mb 37f
4:30pm  -  2 mph 1021.3mb 37f
4:20pm 2
mph
1021mb 36f
4:10pm 2 3 mph 1021mb 37f
4:03pm 3 7 mph 1021mb 37f
4:00pm 3 5 mph 1021mb 37f
3:50pm 5
mph
1020.7mb 37f
3:40pm 3 5 mph 1020.3mb 38f
3:30pm 3 5 mph 1020.3mb 38f
3:20pm 3 7 mph 1020.3mb 37f
3:10pm 3 6 mph 1020mb 38f
3:02pm 2 6 mph 1020mb 37f
3:00pm 3 5 mph 1020.3mb 37f
2:50pm 5
mph
1020mb 37f
2:40pm 5
mph
1020mb 38f
2:30pm 3 6 mph 1020mb 39f
2:20pm 5
mph
1020mb 39f
2:10pm 3 5 mph 1020mb 39f
2:02pm 2 7 mph 1020mb 38f
2:00pm 3 6 mph 1020mb 38f
1:40pm 5 6 mph 1019.6mb 38f
1:30pm 3 6 mph 1019.6mb 37f
1:20pm 5 7 mph 1019.6mb 38f
1:10pm 5 7 mph 1019.6mb 37f
1:02pm 6 10 mph 1019.6mb 38f
1:00pm 7 9 mph 1019.3mb 38f
12:50pm 7 10 mph 1019mb 38f
12:40pm 7 8 mph 1018.6mb 37f
12:30pm 8
mph
1018.6mb 37f
12:20pm 7 8 mph 1018.6mb 37f
12:10pm 8 9 mph 1018.3mb 38f
12:01pm 6 11 mph 1018.3mb 38f
12:00pm 6 9 mph 1018.3mb 38f
11:50am 7 10 mph 1017.9mb 39f
11:40am 6 10 mph 1017.9mb 38f
11:30am 7 11 mph 1017.9mb 38f
11:20am 6 9 mph 1017.9mb 38f
11:10am 6 10 mph 1017.6mb 37f
11:01am 6 11 mph 1017.3mb 37f
11:00am 6 9 mph 1017.6mb 37f
10:50am 5 9 mph 1017.3mb 37f
10:40am 7 9 mph 1017.3mb 37f
10:30am 7 11 mph 1016.9mb 37f
10:20am 6 11 mph 1016.6mb 36f
10:10am 9 11 mph 1016.6mb 36f
10:00am 6 11 mph 1016.6mb 36f
9:50am 6 9 mph 1016.3mb 36f
9:40am 6 9 mph 1016.3mb 36f
9:30am 7 10 mph 1015.9mb 36f
9:20am 9 10 mph 1015.9mb 37f
9:10am 9 11 mph 1015.6mb 37f
9:00am 8 13 mph 1015.6mb 37f
8:50am 8 10 mph 1015.2mb 37f
8:40am 7 13 mph 1015.2mb 37f
8:30am 7 9 mph 1014.9mb 36f
8:20am 3 7 mph 1014.9mb 35f
8:10am 3 7 mph 1014.6mb 36f
8:00am 5 8 mph 1014.2mb 35f
7:50am  -  2 mph 1014.2mb 35f
7:40am 2 3 mph 1014.2mb 35f
7:30am 2 3 mph 1014.2mb 34f
7:20am 2 3 mph 1014.2mb 34f
7:10am  -  3 mph 1014.2mb 34f
7:00am 3 5 mph 1014.2mb 34f
6:40am 5 7 mph 1013.5mb 33f
6:30am 6 8 mph 1013.9mb 33f
6:20am 7
mph
1013.9mb 33f
6:10am 5 6 mph 1013.2mb 33f
6:00am 3 5 mph 1012.9mb 33f
5:50am 2 5 mph 1012.9mb 33f
5:40am 5 6 mph 1012.5mb 33f
5:30am 3 5 mph 1012.5mb 33f
5:20am 5
mph
1012.5mb 33f
5:10am 5
mph
1012.5mb 33f
5:00am 5
mph
1012.5mb 33f
4:50am 3 5 mph 1012.5mb 33f
4:40am 3 5 mph 1012.5mb 33f
4:30am 3 5 mph 1012.5mb 33f
4:20am 3 5 mph 1012.9mb 33f
4:10am 3 5 mph 1012.9mb 33f
4:03am 5
mph
1012.9mb 33f
4:00am 3 5 mph 1012.9mb 33f
3:50am 3 5 mph 1012.9mb 33f
3:40am 2 3 mph 1012.9mb 33f
3:30am 2 3 mph 1012.9mb 33f
3:20am 3
mph
1013.2mb 33f
3:10am 3
mph
1013.5mb 33f
3:03am 1 2 mph 1013.2mb 32f
3:00am  -  2 mph 1012.9mb 32f
2:50am 2
mph
1013.2mb 32f
2:40am 2
mph
1013.2mb 32f
2:30am 2
mph
1013.2mb 32f
2:20am 1 2 mph 1013.2mb 32f
2:10am 2
mph
1013.5mb 33f
2:02am  -  5 mph 1013.5mb 32f
2:00am  -  1 mph 1013.5mb 32f
1:50am  -  2 mph 1012.9mb 32f
1:40am 2 5 mph 1012.5mb 32f
1:30am 2 3 mph 1012.5mb 32f
1:20am 3
mph
1012.9mb 32f
1:10am 2 3 mph 1012.9mb 32f
1:02am 2 7 mph 1013.2mb 32f
1:00am 2 3 mph 1013.2mb 32f
12:50am 2
mph
1013.5mb 32f
12:40am  -  2 mph 1013.5mb 32f
12:30am 1 5 mph 1013.5mb 32f
12:20am 3 7 mph 1012.9mb 32f
12:10am 3 6 mph 1012.5mb 32f
12:02am 3 5 mph 1012.9mb 32f
12:00am 1 5 mph 1012.9mb 32f
Thu 03/23 11:50pm 2 5 mph 1012.9mb 32f
11:40pm 3 5 mph 1012.9mb 32f
11:30pm  -  2 mph 1012.9mb 32f
11:20pm  -  3 mph 1012.9mb 32f
11:10pm 1 2 mph 1012.9mb 32f
11:01pm 2 5 mph 1012.9mb 32f
11:00pm 2 3 mph 1012.9mb 32f
10:50pm 3
mph
1012.5mb 32f
10:40pm 2 3 mph 1012.9mb 32f
10:30pm 2 3 mph 1012.9mb 32f
10:20pm 3
mph
1012.9mb 32f
10:10pm 2 5 mph 1012.9mb 32f
10:01pm  -  3 mph 1013.2mb 32f
10:00pm  -  3 mph 1013.5mb 32f
9:50pm 3
mph
1012.9mb 32f
9:40pm 2 3 mph 1012.9mb 32f
9:30pm 2 3 mph 1013.2mb 32f
9:20pm 3
mph
1012.9mb 32f
9:10pm 2
mph
1013.5mb 32f
9:00pm 2 3 mph 1013.2mb 32f
8:50pm 3 5 mph 1013.9mb 32f
8:40pm 3 7 mph 1013.9mb 32f
8:30pm 7
mph
1013.9mb 32f
8:20pm 2 8 mph 1013.5mb 32f
8:10pm 6 7 mph 1012.5mb 32f
8:00pm 5 6 mph 1012.9mb 32f
7:50pm 5 6 mph 1012.9mb 33f
7:40pm 3 6 mph 1012.5mb 32f
7:30pm 3 7 mph 1012.2mb 32f
7:20pm 6 10 mph 1011.9mb 32f
7:10pm 7 9 mph 1012.2mb 32f
7:00pm 7 8 mph 1012.9mb 32f
6:50pm 5 8 mph 1013.2mb 32f
6:40pm 6 8 mph 1013.2mb 32f
6:30pm 5 8 mph 1013.5mb 32f
6:20pm 5 7 mph 1013.5mb 32f
6:10pm 7 9 mph 1013.5mb 32f
6:00pm 6 7 mph 1013.9mb 33f
5:40pm 5 8 mph 1013.9mb 32f
5:30pm 6 8 mph 1014.2mb 33f
5:20pm 6 8 mph 1014.2mb 33f
5:10pm 5 7 mph 1014.9mb 32f
5:00pm 5 8 mph 1014.6mb 32f
4:50pm 5 7 mph 1014.2mb 33f
4:40pm 5 7 mph 1014.6mb 33f
4:30pm 2 5 mph 1014.9mb 33f
4:20pm 3 6 mph 1014.6mb 33f
4:16pm 3 7 mph 1014.6mb 33f
4:10pm 3 6 mph 1014.6mb 33f
4:00pm 5 7 mph 1014.6mb 33f
3:50pm 5 6 mph 1014.6mb 33f
3:40pm 2 5 mph 1014.9mb 33f
3:30pm 2 3 mph 1014.9mb 33f
3:20pm 2 5 mph 1014.9mb 33f
3:15pm 3 5 mph 1015.2mb 33f
3:10pm 3 5 mph 1015.2mb 33f
3:00pm 2 3 mph 1015.6mb 33f
2:50pm 2
mph
1015.6mb 33f
2:40pm  -  1 mph 1016.3mb 34f
2:30pm  -  1 mph 1016.6mb 34f
2:20pm 1 2 mph 1016.6mb 34f
2:15pm  -  2 mph 1016.6mb 34f
2:10pm  -  1 mph 1016.9mb 34f
2:00pm 1 2 mph 1016.9mb 33f
1:50pm  -  2 mph 1017.3mb 33f
1:40pm 1 2 mph 1017.3mb 34f
1:30pm  -  1 mph 1017.3mb 34f
1:20pm  -  2 mph 1017.6mb 34f
1:14pm  -  3 mph 1017.3mb 34f
1:10pm  -  2 mph 1017.6mb 34f
1:00pm 2
mph
1017.6mb 34f
12:40pm  -  2 mph 1018.3mb 34f
12:30pm 2 3 mph 1018.3mb 33f
12:20pm 2
mph
1018.3mb 33f
12:14pm 1 6 mph 1018.3mb 33f
12:10pm 1 2 mph 1018.6mb 33f
12:00pm 1 2 mph 1018.6mb 33f
11:50am 2 3 mph 1018.6mb 33f
11:40am 3 5 mph 1019mb 33f
11:30am 3 6 mph 1019.3mb 33f
11:20am 5 6 mph 1019mb 33f
11:14am 3 7 mph 1019.3mb 33f
11:10am 5
mph
1019.3mb 33f
11:00am 3 6 mph 1019.3mb 33f
10:40am 5 6 mph 1019.6mb 32f
10:30am 6
mph
1019.6mb 32f
10:20am 6 8 mph 1020mb 32f
10:13am 7 11 mph 1020mb 32f
10:10am 7 9 mph 1020mb 32f
10:00am 8 11 mph 1020mb 32f
9:40am 10 11 mph 1020.3mb 32f
9:30am 8 11 mph 1020.3mb 32f
9:20am 10 13 mph 1020.7mb 32f
9:13am 9 15 mph 1020.7mb 32f
9:10am 11 14 mph 1020.7mb 32f
9:00am 10 15 mph 1020.7mb 32f
8:50am 9 11 mph 1021mb 31f
8:40am 9 11 mph 1021mb 31f
8:30am 10 11 mph 1021.3mb 31f
8:20am 9 11 mph 1021.7mb 31f
8:12am 10 16 mph 1021.7mb 31f
8:10am 10 11 mph 1021.7mb 31f
8:00am 10 14 mph 1022mb 31f
7:50am 11 13 mph 1022mb 31f
7:40am 13 15 mph 1022.4mb 31f
7:30am 14 16 mph 1022.4mb 31f
7:20am 15 16 mph 1022.7mb 31f
7:12am 13 20 mph 1022.7mb 31f
7:10am 13 16 mph 1022.7mb 31f
7:00am 15 17 mph 1022.7mb 31f
6:50am 16 17 mph 1023mb 31f
6:40am 15 17 mph 1023.4mb 31f
6:30am 15 20 mph 1023.7mb 31f
6:20am 14 20 mph 1023.7mb 32f
6:12am 16 18 mph 1023.7mb 32f
6:10am 16 18 mph 1023.7mb 32f
6:00am 14 16 mph 1024mb 32f
5:50am 15 17 mph 1024mb 32f
5:40am 11 17 mph 1024mb 32f
5:30am 13 14 mph 1024.4mb 33f
5:20am 8 10 mph 1024.4mb 32f
5:11am 9 15 mph 1024.4mb 32f
5:10am 9 13 mph 1024.4mb 32f
5:00am 10 13 mph 1024.4mb 32f
4:50am 9 13 mph 1024.4mb 32f
4:40am 11 14 mph 1024.4mb 33f
4:30am 9 15 mph 1024.7mb 32f
4:20am 14 15 mph 1025.1mb 32f
4:11am  -  6 mph 1025.1mb 31f
4:10am  -  5 mph 1025.1mb 31f
4:00am 2 5 mph 1025.4mb 31f
3:50am 2 5 mph 1025.4mb 31f
3:40am 5
mph
1025.4mb 31f
3:30am 3 6 mph 1025.7mb 31f
3:20am 5 6 mph 1025.7mb 31f
3:10am 3 8 mph 1025.4mb 31f
3:00am 5 7 mph 1025.4mb 31f
2:50am 5 7 mph 1025.7mb 31f
2:40am 6 8 mph 1025.7mb 31f
2:30am 5 7 mph 1025.7mb 31f
2:20am 5 7 mph 1025.7mb 31f
2:10am 5 7 mph 1025.7mb 31f
2:00am 5 7 mph 1025.7mb 31f
1:50am 3 6 mph 1026.1mb 31f
1:40am 5 8 mph 1026.1mb 31f
1:30am 6 7 mph 1026.4mb 31f
1:20am 6 8 mph 1026.4mb 31f
1:10am 6 13 mph 1026.4mb 31f
1:00am 6 8 mph 1026.8mb 31f
12:50am 6 8 mph 1026.8mb 31f
12:40am 7 9 mph 1026.8mb 31f
12:30am 8 11 mph 1026.8mb 31f
12:20am 7 13 mph 1026.8mb 31f
12:10am 10 13 mph 1027.1mb 31f
12:09am 10 13 mph 1027.1mb 31f
12:00am 11 13 mph 1027.1mb 31f
Wed 03/22 11:50pm 10 13 mph 1027.4mb 30f
11:40pm 10 13 mph 1027.8mb 30f
11:30pm 10 11 mph 1027.8mb 30f
11:20pm 10 11 mph 1028.1mb 30f
11:10pm 10 13 mph 1028.1mb 30f
11:09pm 9 13 mph 1028.1mb 30f
11:00pm 8 10 mph 1028.4mb 29f
10:50pm 7 9 mph 1028.4mb 29f
10:40pm 8 10 mph 1028.8mb 29f
10:30pm 9 10 mph 1028.4mb 29f
10:20pm 8 11 mph 1028.8mb 29f
10:10pm 9 13 mph 1028.8mb 29f
10:08pm 10 14 mph 1028.8mb 29f
10:00pm 9 13 mph 1028.8mb 29f
9:50pm 11 14 mph 1028.8mb 29f
9:40pm 10 14 mph 1028.8mb 29f
9:30pm 10 14 mph 1028.8mb 29f
9:20pm 11 14 mph 1032.2mb 29f
9:10pm 11 14 mph 1028.8mb 28f
9:08pm 11 16 mph 1028.8mb 28f
9:00pm 13 16 mph 1028.8mb 28f
8:40pm 13 15 mph 1029.1mb 28f
8:30pm 14 15 mph 1029.1mb 28f
8:20pm 9 14 mph 1029.1mb 28f
8:10pm 11 16 mph 1029.5mb 28f
8:08pm 11 16 mph 1029.1mb 28f
8:00pm 11 16 mph 1029.5mb 27f
7:50pm 10 14 mph 1029.5mb 28f
7:40pm 10 14 mph 1029.5mb 28f
7:30pm 10 14 mph 1029.5mb 27f
7:20pm 10 13 mph 1029.5mb 27f
7:10pm 10 14 mph 1029.8mb 27f
7:07pm 11 14 mph 1029.8mb 27f
7:00pm 8 13 mph 1029.8mb 27f
6:50pm 9 13 mph 1029.8mb 27f
6:40pm 10 13 mph 1029.8mb 27f
6:30pm 9 11 mph 1029.8mb 27f
6:20pm 8 11 mph 1030.1mb 27f
6:10pm 9 11 mph 1030.1mb 27f
6:07pm 7 13 mph 1030.1mb 27f
6:00pm 8 11 mph 1030.1mb 28f
5:50pm 9 13 mph 1030.1mb 28f
5:40pm 7 13 mph 1030.1mb 28f
5:30pm 8 11 mph 1030.5mb 28f
5:20pm 9 13 mph 1030.5mb 28f
5:10pm 9 11 mph 1030.8mb 28f
5:06pm 7 13 mph 1030.8mb 28f
5:00pm 9 13 mph 1031.2mb 28f
4:50pm 9 11 mph 1031.2mb 27f
4:40pm 8 11 mph 1031.2mb 27f
4:30pm 10 13 mph 1031.5mb 27f
4:20pm 10 13 mph 1031.5mb 27f
4:10pm 8 10 mph 1031.5mb 27f
4:06pm 8 11 mph 1031.8mb 27f
4:00pm 9 10 mph 1031.8mb 27f
3:50pm 7 9 mph 1032.2mb 27f
3:40pm 7 11 mph 1032.2mb 26f
3:30pm 6 10 mph 1032.2mb 27f
3:20pm 8 9 mph 1032.5mb 27f
3:10pm 5 8 mph 1032.8mb 26f
3:06pm 7 8 mph 1032.8mb 26f
3:00pm 5 7 mph 1032.8mb 26f
2:40pm 6 7 mph 1033.2mb 27f
2:30pm 3 7 mph 1033.5mb 26f
2:20pm 3 7 mph 1033.9mb 26f
2:10pm 5 8 mph 1033.9mb 26f
2:05pm 3 7 mph 1033.9mb 27f
2:00pm 1 7 mph 1033.9mb 26f
1:50pm 3 5 mph 1034.2mb 26f
1:40pm 5 6 mph 1034.5mb 27f
1:30pm 5 6 mph 1034.5mb 26f
1:20pm 5 6 mph 1034.9mb 26f
1:10pm 3 7 mph 1035.2mb 27f
1:05pm 3 11 mph 1035.2mb 26f
1:00pm 5 9 mph 1035.2mb 26f
12:50pm 7 9 mph 1035.2mb 26f
12:40pm 5 9 mph 1035.6mb 25f
12:30pm 6 11 mph 1035.2mb 25f
12:20pm 6 9 mph 1035.2mb 25f
12:10pm 6 9 mph 1035.6mb 25f
12:04pm 6 10 mph 1035.6mb 25f
12:00pm 7 10 mph 1035.6mb 25f
11:50am 5 8 mph 1035.6mb 26f
11:40am 5 9 mph 1035.6mb 25f
11:30am 7 8 mph 1035.6mb 26f
11:20am 5 7 mph 1035.9mb 26f
11:10am 5 7 mph 1035.9mb 26f
11:04am 3 9 mph 1035.9mb 25f
11:00am 6 8 mph 1035.9mb 25f
10:50am 5 9 mph 1035.9mb 25f
10:40am 3 7 mph 1035.9mb 25f
10:30am 6 9 mph 1035.9mb 25f
10:20am 7 9 mph 1035.9mb 25f
10:10am 6 9 mph 1035.9mb 25f
10:04am 6 11 mph 1035.9mb 26f
10:00am 2 10 mph 1035.9mb 26f